This demonstration page uses our WeatherBlox Daily Observations layout. Learn more.

Left ArrowRight Arrow

44.8408, -93.29828

Hourly Observations for April 19, 2017

Temp ( °F °C ) Dew Point ( °F °C ) Humidity (%) Winds ( mph kmh ) Pressure ( in mb ) Visibility ( mi km ) Precip ( " mm )
12:53 am 00:53 Cloudy 48 8.9 39 3.9 71 71 N 14 22 30.04 1017 10 16 0.00 0.00
1:53 am 01:53 Cloudy 48 8.9 39 3.9 71 71 NNW 9 15 30.04 1017 10 16 0.00 0.00
2:53 am 02:53 Cloudy 47 8.3 39 3.9 74 74 N 14 22 30.04 1017 10 16 0.00 0.00
3:53 am 03:53 Cloudy 46 7.8 38 3.3 73 73 NNW 9 15 30.07 1018 10 16 0.00 0.00
4:53 am 04:53 Cloudy 46 7.8 36 2.2 68 68 N 10 17 30.08 1019 10 16 0.00 0.00
5:53 am 05:53 Cloudy 45 7.2 36 2.2 71 71 N 13 20 30.08 1019 10 16 0.00 0.00
6:53 am 06:53 Cloudy 45 7.2 37 2.8 74 74 VRB 7 11 30.10 1019 10 16 0.00 0.00
7:53 am 07:53 Cloudy 45 7.2 36 2.2 71 71 NNE 10 17 30.09 1019 10 16 0.00 0.00
8:00 am 08:00 Cloudy 45 7 36 2 71 71 NNE 12 19 30.09 1019 10 16 0.00 0.00
8:53 am 08:53 Cloudy 45 7.2 36 2.2 71 71 NNE 12 19 30.07 1018 10 16 0.00 0.00
9:53 am 09:53 Cloudy 47 8.3 37 2.8 69 69 NE 6 9 30.11 1020 10 16 0.00 0.00
10:53 am 10:53 Cloudy 49 9.4 38 3.3 66 66 ENE 9 15 30.12 1020 10 16 0.00 0.00
11:11 am 11:11 Cloudy 49 9.4 38 3.3 66 66 E 9 15 30.12 1020 10 16 0.00 0.00
11:28 am 11:28 Cloudy 50 10 37 3 62 62 ENE 7 11 30.12 1020 10 16 0.00 0.00
11:41 am 11:41 Cloudy 49 9.4 37 2.8 64 64 VRB 5 7 30.12 1020 10 16 0.00 0.00
11:50 am 11:50 Cloudy 50 10 37 3 62 62 VRB 3 6 30.15 1021 10 16 0.00 0.00
11:53 am 11:53 Cloudy 49 9.4 38 3.3 66 66 VRB 5 7 30.16 1021 10 16 0.00 0.00
12:10 pm 12:10 Cloudy 50 10 37 3 62 62 E 8 13 30.12 1020 10 16 0.00 0.00
12:53 pm 12:53 Cloudy 50 10 38 3.3 63 63 E 9 15 30.11 1020 10 16 0.00 0.00
1:43 pm 13:43 Cloudy 50 10 38 3.3 63 63 E 16 26 30.03 1017 10 16 0.00 0.00
1:53 pm 13:53 Cloudy 49 9.4 37 2.8 64 64 E 20 31 30.04 1017 10 16 0.00 0.00
2:53 pm 14:53 Cloudy with Light Rain 48 8.9 40 4.4 74 74 ENE 9 15 30.06 1018 9 14 0.02 0.51
3:17 pm 15:17 Cloudy with Rain 48 8.9 40 4.4 74 74 S 5 7 30.15 1021 6 10 0.03 0.76
3:38 pm 15:38 Cloudy with Rain 46 8 41 5 82 82 ENE 6 9 30.09 1019 2 3 0.00 0.00
3:53 pm 15:53 Cloudy with Rain 47 8.3 42 5.6 83 83 NE 20 31 29.99 1016 4 6 0.21 5.33
4:30 pm 16:30 Cloudy with Light Rain 46 8 43 6 87 87 ENE 24 39 29.94 1014 10 16 0.00 0.00
4:53 pm 16:53 Cloudy with Light Rain 47 8.3 42 5.6 83 83 E 21 33 29.94 1014 9 14 0.06 1.52
5:45 pm 17:45 Cloudy with Light Rain 47 8.3 42 5.6 83 83 VRB 5 7 30.00 1016 8 13 0.01 0.25
5:53 pm 17:53 Cloudy with Light Rain 47 8.3 42 5.6 83 83 S 6 9 30.03 1017 7 11 0.02 0.51
6:03 pm 18:03 Cloudy with Nearby Thunderstorms 46 8 41 5 82 82 E 5 7 30.03 1017 3 5 0.00 0.00
6:25 pm 18:25 Cloudy with Rain 46 7.8 43 6.1 89 89 NNW 10 17 30.03 1017 3 5 0.11 2.79
6:42 pm 18:42 Cloudy with Rain 46 7.8 43 6.1 89 89 NW 10 17 30.09 1019 4 6 0.16 4.06
6:50 pm 18:50 Cloudy with Rain 46 8 43 6 87 87 NNE 9 15 30.03 1017 3 5 0.00 0.00
6:53 pm 18:53 Cloudy with Nearby Thunderstorms 46 7.8 43 6.1 89 89 NE 12 19 30.03 1017 3 5 0.19 4.83
6:56 pm 18:56 Cloudy with Nearby Thunderstorms 46 7.8 43 6.1 89 89 ENE 13 20 30.00 1016 3 5 0.01 0.25
7:11 pm 19:11 Cloudy with Nearby Thunderstorms 46 7.8 43 6.1 89 89 E 21 33 29.97 1015 4 6 0.06 1.52
7:30 pm 19:30 Cloudy with Light Rain 46 8 43 6 87 87 E 9 15 29.97 1015 6 10 0.00 0.00
7:37 pm 19:37 Cloudy with Rain 47 8.3 43 6.1 86 86 NE 7 11 29.97 1015 3 5 0.17 4.32
7:53 pm 19:53 Cloudy with Rain 46 7.8 43 6.1 89 89 NNW 9 15 29.99 1016 6 10 0.22 5.59
8:05 pm 20:05 Cloudy with Light Rain 46 7.8 43 6.1 89 89 N 10 17 29.97 1015 10 16 0.01 0.25
8:21 pm 20:21 Cloudy with Light Rain 47 8.3 43 6.1 86 86 N 13 20 29.97 1015 9 14 0.02 0.51
8:53 pm 20:53 Cloudy with Light Rain 47 8.3 44 6.7 90 90 NNE 12 19 29.97 1015 10 16 0.03 0.76
9:53 pm 21:53 Cloudy 47 8.3 43 6.1 86 86 NE 13 20 29.95 1014 10 16 0.00 0.03
10:29 pm 22:29 Cloudy 47 8.3 43 6.1 86 86 NE 15 24 29.94 1014 10 16 0.00 0.03
10:44 pm 22:44 Cloudy 47 8.3 43 6.1 86 86 NE 13 20 29.94 1014 10 16 0.00 0.03
10:53 pm 22:53 Cloudy 47 8.3 43 6.1 86 86 NE 12 19 29.91 1013 10 16 0.00 0.03
11:14 pm 23:14 Cloudy 46 8 43 6 87 87 NNE 10 17 29.94 1014 10 16 0.00 0.00
11:53 pm 23:53 Cloudy 46 7.8 43 6.1 89 89 NE 13 20 29.89 1012 10 16 0.00 0.00

Powered by AerisWeather